N1IJV-10 Weather Reports


time (UTC)temp
C
wind
direction
speed
KPH
gust
KPH
rain 1hr
cm
rain 24hr
cm
rain mn
cm
humidity
%
barometer
mb
20260904074218 25 136 1.6 1.6 0.00 0.00 0.00 91 1009.3
20260904073714 25 136 1.6 1.6 0.00 0.00 0.00 92 1009.3
20260904073210 25 136 1.6 3.2 0.00 0.00 0.00 92 1009.4
20260904072706 25 138 0.0 3.2 0.00 0.00 0.00 93 1009.4
20260904072200 25 135 0.0 1.6 0.00 0.00 0.00 94 1009.4
20260904071656 25 137 0.0 1.6 0.00 0.00 0.00 95 1009.3
20260904071151 25 136 0.0 0.0 0.00 0.00 0.00 97 1009.2
20260904070650 25 137 0.0 0.0 0.00 0.00 0.00 98 1009.5
20260904070149 24 136 0.0 0.0 0.00 0.00 0.00 98 1009.6
20260904065644 24 138 0.0 0.0 0.00 0.00 0.00 98 1009.6
20260904065142 24 136 0.0 0.0 0.00 0.00 0.00 98 1009.6
20260904064637 24 136 0.0 0.0 0.00 0.00 0.00 98 1009.7
20260904064136 25 137 0.0 0.0 0.00 0.00 0.00 98 1010.1
20260904063632 25 137 0.0 0.0 0.00 0.00 0.00 97 1010.0
20260904063128 25 137 0.0 0.0 0.00 0.00 0.00 97 1010.3
20260904062624 25 137 0.0 0.0 0.00 0.00 0.00 97 1010.6
20260904062120 25 138 0.0 0.0 0.00 0.00 0.00 97 1010.5
20260904061615 25 136 0.0 0.0 0.00 0.00 0.00 96 1010.4
20260904061112 25 136 0.0 0.0 0.00 0.00 0.00 96 1010.6
20260904060608 25 136 0.0 0.0 0.00 0.00 0.00 96 1010.6
20260904060104 25 136 0.0 0.0 0.00 0.00 0.00 96 1010.7
20260904055558 25 136 0.0 0.0 0.00 0.00 0.00 95 1010.6
20260904055053 25 138 0.0 0.0 0.00 0.00 0.00 95 1010.8
20260904054549 25 137 0.0 0.0 0.00 0.00 0.00 95 1010.8
20260904054045 25 136 0.0 0.0 0.00 0.00 0.00 95 1010.4
20260904053544 25 137 0.0 0.0 0.00 0.00 0.00 94 1010.5
20260904053040 25 136 0.0 0.0 0.00 0.00 0.00 94 1010.9
20260904052536 26 135 0.0 0.0 0.00 0.00 0.00 93 1010.8
20260904052032 26 135 0.0 0.0 0.00 0.00 0.00 92 1010.6
20260904051528 26 136 0.0 0.0 0.00 0.00 0.00 91 1010.7
20260904051027 26 136 0.0 0.0 0.00 0.00 0.00 89 1010.7
20260904050524 27 136 0.0 0.0 0.00 0.00 0.00 89 1010.6
20260904050019 27 138 0.0 1.6 0.00 0.00 0.00 89 1010.4
20260904045514 27 137 0.0 1.6 0.00 0.00 0.00 89 1010.3
20260904045009 27 135 0.0 0.0 0.00 0.00 0.00 89 1010.4
20260904044505 27 135 0.0 1.6 0.00 0.00 0.00 89 1010.4
20260904044001 27 135 0.0 0.0 0.00 0.00 0.00 89 1010.5
20260904043457 27 136 0.0 1.6 0.00 0.00 0.00 89 1010.1
20260904042952 27 135 0.0 0.0 0.00 0.00 0.00 90 1010.6
20260904042449 27 136 0.0 0.0 0.00 0.00 0.00 91 1010.6
20260904041943 27 137 0.0 0.0 0.00 0.00 0.00 91 1010.5
20260904041440 27 137 0.0 0.0 0.00 0.00 0.00 91 1010.4
20260904040936 27 137 0.0 0.0 0.00 0.00 0.00 91 1010.5
20260904040435 27 137 0.0 0.0 0.00 0.00 0.00 90 1010.6
20260904035932 27 137 0.0 0.0 0.00 0.00 0.00 91 1010.5
20260904035427 27 138 0.0 0.0 0.00 0.00 0.00 90 1010.5
20260904034926 27 138 0.0 0.0 0.00 0.00 0.00 90 1010.7
20260904034422 27 138 0.0 0.0 0.00 0.00 0.00 90 1010.4
20260904033917 27 136 0.0 1.6 0.00 0.00 0.00 90 1010.6
20260904033414 27 137 0.0 1.6 0.00 0.00 0.00 90 1010.4
20260904032910 27 136 1.6 1.6 0.00 0.00 0.00 90 1010.6
20260904032404 27 137 0.0 1.6 0.00 0.00 0.00 90 1010.6
20260904031858 27 137 0.0 1.6 0.00 0.00 0.00 90 1010.5
20260904031354 26 137 0.0 1.6 0.00 0.00 0.00 91 1010.6
20260904030850 26 137 0.0 0.0 0.00 0.00 0.00 91 1010.6
20260904030345 26 138 0.0 0.0 0.00 0.00 0.00 92 1010.8
20260904025841 26 136 0.0 0.0 0.00 0.00 0.00 92 1010.7
20260904025337 26 138 0.0 0.0 0.00 0.00 0.00 92 1010.9
20260904024836 25 137 0.0 0.0 0.00 0.00 0.00 92 1010.7
20260904024331 26 136 0.0 0.0 0.00 0.00 0.00 91 1010.6
20260904023828 26 135 1.6 1.6 0.00 0.00 0.00 90 1010.8
20260904023324 26 136 0.0 0.0 0.00 0.00 0.00 89 1010.7
20260904022823 26 136 0.0 0.0 0.00 0.00 0.00 89 1010.7
20260904022320 26 136 1.6 1.6 0.00 0.00 0.00 88 1010.6
20260904021817 27 135 0.0 1.6 0.00 0.00 0.00 86 1010.4
20260904021316 27 136 0.0 0.0 0.00 0.00 0.00 84 1010.5
20260904020812 27 136 0.0 0.0 0.00 0.00 0.00 83 1010.7
20260904020307 27 136 0.0 0.0 0.00 0.00 0.00 83 1010.7
20260904015805 27 136 1.6 1.6 0.00 0.00 0.00 82 1010.5
20260904015301 27 137 0.0 1.6 0.00 0.00 0.00 82 1010.6
20260904014759 28 137 0.0 1.6 0.00 0.00 0.00 82 1010.3
20260904014254 28 137 0.0 1.6 0.00 0.00 0.00 82 1010.3
20260904013750 28 137 1.6 1.6 0.00 0.00 0.00 81 1010.3
20260904013246 28 137 0.0 1.6 0.00 0.00 0.00 81 1010.2
20260904012742 28 137 0.0 1.6 0.00 0.00 0.00 81 1010.2
20260904012241 28 140 0.0 1.6 0.00 0.00 0.00 81 1010.0
20260904011741 28 150 0.0 1.6 0.00 0.00 0.00 81 1010.0
20260904011236 28 150 0.0 0.0 0.00 0.00 0.00 81 1009.6
20260904010731 28 149 0.0 0.0 0.00 0.00 0.00 81 1009.8
20260904010228 28 148 0.0 0.0 0.00 0.00 0.00 80 1009.2
20260904005727 29 146 0.0 0.0 0.00 0.00 0.00 79 1009.1
20260904005223 30 144 0.0 0.0 0.00 0.00 0.00 77 1009.2
20260904004718 30 145 0.0 0.0 0.00 0.00 0.00 74 1009.3
20260904004214 30 143 0.0 0.0 0.00 0.00 0.00 74 1008.9
20260904003708 30 143 0.0 1.6 0.00 0.00 0.00 74 1008.7
20260904003205 30 143 0.0 0.0 0.00 0.00 0.00 74 1008.9
20260904002700 30 143 0.0 0.0 0.00 0.00 0.00 74 1008.9
20260904002156 30 143 0.0 1.6 0.00 0.00 0.00 73 1008.9
20260904001651 30 143 0.0 1.6 0.00 0.00 0.00 73 1009.0
20260904001150 31 143 0.0 3.2 0.00 0.00 0.00 72 1008.9
20260904000645 31 143 0.0 1.6 0.00 0.00 0.00 71 1008.9
20260904000140 31 143 0.0 1.6 0.00 0.00 0.00 71 1009.0
20260903235640 31 142 0.0 3.2 0.00 0.00 0.00 71 1009.0
20260903235136 31 143 0.0 3.2 0.00 0.00 0.00 71 1009.0
20260903234631 31 143 0.0 0.0 0.00 0.00 0.00 71 1009.1
20260903234127 31 143 1.6 1.6 0.00 0.00 0.00 70 1009.2
20260903233623 31 143 0.0 0.0 0.00 0.00 0.00 70 1009.1
20260903233119 31 143 0.0 1.6 0.00 0.00 0.00 69 1009.1
20260903232613 31 143 1.6 3.2 0.00 0.00 0.00 68 1009.2
20260903232109 31 144 0.0 1.6 0.00 0.00 0.00 67 1009.2
20260903231603 31 145 1.6 3.2 0.00 0.00 0.00 66 1009.4
20260903231103 31 145 1.6 1.6 0.00 0.00 0.00 65 1009.3
20260903230559 32 143 1.6 3.2 0.00 0.00 0.00 64 1009.3
20260903230057 32 142 1.6 3.2 0.00 0.00 0.00 65 1009.5
20260903225554 32 144 1.6 3.2 0.00 0.00 0.00 66 1009.5
20260903225051 32 172 3.2 4.8 0.00 0.00 0.00 65 1009.7
20260903224547 32 146 0.0 4.8 0.00 0.00 0.00 64 1009.3
20260903224043 32 145 1.6 3.2 0.00 0.00 0.00 64 1009.6
20260903223537 33 260 4.8 8.0 0.00 0.00 0.00 62 1009.5
20260903223036 33 147 1.6 3.2 0.00 0.00 0.00 61 1009.2
20260903222531 33 147 3.2 8.0 0.00 0.00 0.00 63 1009.4
20260903222030 34 146 1.6 3.2 0.00 0.00 0.00 62 1009.7
20260903221526 35 147 4.8 4.8 0.00 0.00 0.00 58 1009.8
20260903221022 34 144 0.0 1.6 0.00 0.00 0.00 61 1009.8
20260903220521 33 144 0.0 3.2 0.00 0.00 0.00 63 1009.6
20260903220016 33 144 1.6 4.8 0.00 0.00 0.00 63 1009.6
20260903215510 34 145 0.0 3.2 0.00 0.00 0.00 62 1009.6
20260903215009 34 152 4.8 9.7 0.00 0.00 0.00 59 1009.7
20260903214504 35 132 1.6 3.2 0.00 0.00 0.00 60 1009.8
20260903214004 34 145 0.0 3.2 0.00 0.00 0.00 59 1009.5
20260903213500 34 145 6.4 8.0 0.00 0.00 0.00 59 1009.6
20260903212955 35 149 3.2 9.7 0.00 0.00 0.00 60 1009.8
20260903212451 35 152 1.6 4.8 0.00 0.00 0.00 58 1009.6
20260903211951 35 142 1.6 8.0 0.00 0.00 0.00 58 1009.6
20260903211446 35 147 1.6 1.6 0.00 0.00 0.00 57 1009.6
20260903210943 35 146 0.0 1.6 0.00 0.00 0.00 58 1009.7
20260903210442 35 145 1.6 4.8 0.00 0.00 0.00 60 1009.6
20260903205938 35 223 4.8 8.0 0.00 0.00 0.00 59 1009.8
20260903205432 35 143 1.6 3.2 0.00 0.00 0.00 60 1009.7
20260903204926 35 145 1.6 8.0 0.00 0.00 0.00 59 1009.7
20260903204423 34 147 1.6 4.8 0.00 0.00 0.00 60 1009.7
20260903203918 35 143 1.6 3.2 0.00 0.00 0.00 58 1010.0
20260903203414 35 145 0.0 3.2 0.00 0.00 0.00 58 1009.8
20260903202913 34 143 1.6 1.6 0.00 0.00 0.00 61 1009.9
20260903202410 34 154 3.2 4.8 0.00 0.00 0.00 60 1010.0
20260903201909 34 173 3.2 8.0 0.00 0.00 0.00 60 1010.2
20260903201405 34 143 1.6 8.0 0.00 0.00 0.00 62 1010.1
20260903200904 34 142 0.0 3.2 0.00 0.00 0.00 61 1010.0
20260903200359 34 140 1.6 3.2 0.00 0.00 0.00 62 1010.2
20260903195854 33 142 0.0 3.2 0.00 0.00 0.00 63 1010.3
20260903195350 33 140 3.2 8.0 0.00 0.00 0.00 61 1010.2
20260903194844 33 141 0.0 3.2 0.00 0.00 0.00 64 1010.5
20260903194340 33 140 0.0 8.0 0.00 0.00 0.00 64 1010.3
20260903193836 33 140 3.2 4.8 0.00 0.00 0.00 63 1010.6
20260903193332 32 141 1.6 4.8 0.00 0.00 0.00 63 1010.6
20260903192827 32 140 1.6 3.2 0.00 0.00 0.00 63 1010.8
20260903192322 32 141 1.6 3.2 0.00 0.00 0.00 64 1010.5
20260903191819 32 139 1.6 4.8 0.00 0.00 0.00 65 1010.9
20260903191315 31 136 1.6 8.0 0.00 0.00 0.00 66 1010.9
20260903190814 32 137 4.8 4.8 0.00 0.00 0.00 65 1010.8
20260903190308 32 141 1.6 3.2 0.00 0.00 0.00 67 1010.9
20260903185802 32 138 3.2 9.7 0.00 0.00 0.00 67 1010.9
20260903185257 31 138 0.0 3.2 0.00 0.00 0.00 67 1010.8
20260903184754 31 135 0.0 8.0 0.00 0.00 0.00 73 1010.8
20260903184250 31 139 0.0 3.2 0.00 0.00 0.00 69 1011.2
20260903183744 30 134 1.6 4.8 0.00 0.00 0.00 70 1011.2
20260903183239 30 139 3.2 8.0 0.00 0.00 0.00 70 1011.2
20260903182737 30 131 4.8 8.0 0.00 0.00 0.00 70 1011.3
20260903182233 29 137 0.0 4.8 0.00 0.00 0.00 74 1011.4
20260903181731 30 134 4.8 8.0 0.00 0.00 0.00 71 1011.5
20260903181226 30 127 3.2 4.8 0.00 0.00 0.00 71 1011.5
20260903180722 30 138 3.2 3.2 0.00 0.00 0.00 72 1011.6
20260903180215 30 139 1.6 8.0 0.00 0.00 0.00 73 1011.8
20260903175715 30 134 1.6 3.2 0.00 0.00 0.00 73 1011.6
20260903175209 29 131 6.4 11.3 0.00 0.00 0.00 73 1011.8
20260903174709 28 134 4.8 4.8 0.00 0.00 0.00 75 1011.7
20260903174204 29 114 4.8 8.0 0.00 0.00 0.00 74 1011.7
20260903173659 30 137 1.6 4.8 0.00 0.00 0.00 73 1011.9
20260903173155 29 124 4.8 8.0 0.00 0.00 0.00 72 1011.9
20260903172649 29 142 3.2 4.8 0.00 0.00 0.00 72 1012.1
20260903172145 29 136 1.6 8.0 0.00 0.00 0.00 72 1012.1
20260903171644 29 141 1.6 3.2 0.00 0.00 0.00 73 1012.2
20260903171141 30 145 1.6 4.8 0.00 0.00 0.00 72 1011.9
20260903170639 29 141 3.2 4.8 0.00 0.00 0.00 74 1012.2
20260903170135 30 137 1.6 4.8 0.00 0.00 0.00 70 1012.2
20260903165633 30 160 1.6 8.0 0.00 0.00 0.00 73 1012.3
20260903165128 30 139 3.2 3.2 0.00 0.00 0.00 71 1012.3
20260903164622 29 135 3.2 8.0 0.00 0.00 0.00 71 1012.3
20260903164118 30 134 4.8 4.8 0.00 0.00 0.00 69 1011.9
20260903163613 30 157 3.2 3.2 0.00 0.00 0.00 70 1012.3
20260903163109 30 146 0.0 8.0 0.00 0.00 0.00 72 1012.2
20260903162605 30 142 1.6 4.8 0.00 0.00 0.00 74 1012.2
20260903162101 30 134 4.8 8.0 0.00 0.00 0.00 72 1012.1
20260903161556 30 158 3.2 11.3 0.00 0.00 0.00 73 1012.3
20260903161052 29 152 1.6 8.0 0.00 0.00 0.00 74 1012.3
20260903160550 29 150 3.2 8.0 0.00 0.00 0.00 76 1011.9
20260903160045 29 154 4.8 4.8 0.00 0.00 0.00 77 1011.9
20260903155544 30 151 6.4 9.7 0.00 0.00 0.00 77 1011.6
20260903155040 30 150 1.6 3.2 0.00 0.00 0.00 77 1011.5
20260903154536 30 152 3.2 3.2 0.00 0.00 0.00 75 1011.3
20260903154032 31 155 0.0 3.2 0.00 0.00 0.00 73 1011.0
20260903153527 31 162 3.2 3.2 0.00 0.00 0.00 69 1011.0
20260903153023 31 158 3.2 3.2 0.00 0.00 0.00 69 1010.9
20260903152518 31 150 1.6 4.8 0.00 0.00 0.00 71 1010.9
20260903152015 31 153 1.6 4.8 0.00 0.00 0.00 70 1011.0
20260903151513 31 151 1.6 3.2 0.00 0.00 0.00 71 1010.8
20260903151009 31 149 1.6 4.8 0.00 0.00 0.00 71 1011.0
20260903150503 31 153 1.6 4.8 0.00 0.00 0.00 73 1010.9
20260903145958 31 151 3.2 4.8 0.00 0.00 0.00 72 1011.0
20260903145453 30 152 1.6 3.2 0.00 0.00 0.00 72 1010.7
20260903144948 30 152 1.6 8.0 0.00 0.00 0.00 73 1011.0
20260903144447 30 151 6.4 8.0 0.00 0.00 0.00 72 1010.9
20260903143943 30 198 4.8 8.0 0.00 0.00 0.00 73 1010.8
20260903143440 30 151 1.6 4.8 0.00 0.00 0.00 76 1010.6
20260903142935 29 154 1.6 11.3 0.00 0.00 0.00 76 1010.9
20260903142431 29 149 0.0 3.2 0.00 0.00 0.00 76 1011.1
20260903141927 29 145 6.4 8.0 0.00 0.00 0.00 76 1010.9
20260903141422 29 147 1.6 4.8 0.00 0.00 0.00 76 1010.5
20260903140918 28 161 3.2 8.0 0.00 0.00 0.00 76 1010.5
20260903140413 28 150 3.2 3.2 0.00 0.00 0.00 77 1010.8
20260903135908 28 150 0.0 4.8 0.00 0.00 0.00 79 1010.7
20260903135404 28 147 1.6 3.2 0.00 0.00 0.00 79 1010.7
20260903134903 27 145 1.6 3.2 0.00 0.00 0.00 81 1010.7
20260903134357 27 146 1.6 4.8 0.00 0.00 0.00 81 1010.6
20260903133855 27 142 3.2 8.0 0.00 0.00 0.00 81 1010.5
20260903133346 27 143 1.6 3.2 0.00 0.00 0.00 82 1010.8
20260903132845 27 149 4.8 4.8 0.00 0.00 0.00 82 1010.8
20260903132342 26 141 1.6 3.2 0.00 0.00 0.00 83 1010.8
20260903131835 26 134 1.6 11.3 0.00 0.00 0.00 83 1011.0
20260903131330 26 135 1.6 4.8 0.00 0.00 0.00 85 1010.7
20260903130829 26 136 1.6 3.2 0.00 0.00 0.00 85 1010.9
20260903130325 26 138 3.2 3.2 0.00 0.00 0.00 85 1010.8
20260903125823 26 136 1.6 3.2 0.00 0.00 0.00 85 1011.1
20260903125319 26 134 1.6 3.2 0.00 0.00 0.00 85 1010.9
20260903124818 26 136 1.6 1.6 0.00 0.00 0.00 85 1011.2
20260903124313 26 136 1.6 3.2 0.00 0.00 0.00 85 1011.1
20260903123812 26 136 1.6 3.2 0.00 0.00 0.00 86 1011.1
20260903123312 25 135 0.0 3.2 0.00 0.00 0.00 86 1011.2
20260903122809 25 135 1.6 1.6 0.00 0.00 0.00 87 1011.1
20260903122306 25 135 1.6 3.2 0.00 0.00 0.00 87 1011.0
20260903121802 25 137 0.0 1.6 0.00 0.00 0.00 88 1011.1
20260903121259 25 136 0.0 0.0 0.00 0.00 0.00 87 1011.0
20260903120754 25 134 0.0 1.6 0.00 0.00 0.00 88 1011.2
20260903120248 25 136 0.0 0.0 0.00 0.00 0.00 88 1011.2
20260903115746 25 136 1.6 1.6 0.00 0.00 0.00 88 1011.1
20260903115242 25 136 0.0 0.0 0.00 0.00 0.00 88 1011.1
20260903114736 25 135 0.0 0.0 0.00 0.00 0.00 88 1011.0
20260903114232 25 136 0.0 1.6 0.00 0.00 0.00 87 1010.9
20260903113727 25 137 0.0 0.0 0.00 0.00 0.00 87 1010.9
20260903113223 25 135 1.6 1.6 0.00 0.00 0.00 87 1010.6
20260903112719 25 137 1.6 3.2 0.00 0.00 0.00 87 1010.7
20260903112215 25 136 0.0 0.0 0.00 0.00 0.00 87 1010.6
20260903111713 25 136 0.0 3.2 0.00 0.00 0.00 87 1010.9
20260903111209 25 137 0.0 1.6 0.00 0.00 0.00 88 1010.8
20260903110704 25 136 0.0 1.6 0.00 0.00 0.00 88 1010.9
20260903110200 25 135 1.6 3.2 0.00 0.00 0.00 88 1010.8
20260903105654 25 134 0.0 1.6 0.00 0.00 0.00 89 1010.7
20260903105149 25 135 0.0 0.0 0.00 0.00 0.00 89 1010.8
20260903104649 25 136 0.0 0.0 0.00 0.00 0.00 89 1010.9
20260903104144 25 136 0.0 1.6 0.00 0.00 0.00 89 1010.9
20260903103639 25 137 0.0 0.0 0.00 0.00 0.00 89 1010.9
20260903103136 25 135 0.0 1.6 0.00 0.00 0.00 89 1010.7
20260903102631 25 135 0.0 1.6 0.00 0.00 0.00 90 1010.7
20260903102130 25 134 0.0 1.6 0.00 0.00 0.00 90 1010.7
20260903101624 25 135 0.0 0.0 0.00 0.00 0.00 91 1010.6
20260903101119 25 135 0.0 0.0 0.00 0.00 0.00 91 1010.9
20260903100614 25 136 0.0 0.0 0.00 0.00 0.00 91 1010.9
20260903100114 25 136 1.6 1.6 0.00 0.00 0.00 91 1010.8
20260903095611 25 135 0.0 1.6 0.00 0.00 0.00 91 1010.8
20260903095111 25 135 1.6 1.6 0.00 0.00 0.00 91 1010.8
20260903094606 25 136 1.6 1.6 0.00 0.00 0.00 92 1010.8
20260903094101 25 136 0.0 1.6 0.00 0.00 0.00 92 1010.6
20260903093556 24 136 0.0 0.0 0.00 0.00 0.00 93 1010.7
20260903093052 24 136 0.0 0.0 0.00 0.00 0.00 94 1010.6
20260903092551 24 136 0.0 1.6 0.00 0.00 0.00 94 1010.6
20260903092046 24 137 0.0 0.0 0.00 0.00 0.00 94 1010.6
20260903091544 24 136 0.0 0.0 0.00 0.00 0.00 95 1010.5
20260903091039 24 137 0.0 0.0 0.00 0.00 0.00 95 1010.6
20260903090535 24 138 0.0 0.0 0.00 0.00 0.00 95 1010.6
20260903090034 24 138 0.0 0.0 0.00 0.00 0.00 95 1010.5
20260903085532 25 137 0.0 0.0 0.00 0.00 0.00 95 1010.5
20260903085028 25 137 0.0 0.0 0.00 0.00 0.00 95 1010.3
20260903084526 25 137 0.0 0.0 0.00 0.00 0.00 95 1010.4
20260903084021 25 137 0.0 0.0 0.00 0.00 0.00 95 1010.5
20260903083517 25 137 0.0 0.0 0.00 0.00 0.00 95 1010.3
20260903083016 25 137 0.0 0.0 0.00 0.00 0.00 95 1010.4
20260903082511 25 137 0.0 0.0 0.00 0.00 0.00 95 1010.6
20260903082006 25 138 0.0 0.0 0.00 0.00 0.00 95 1010.5
20260903081501 25 136 0.0 0.0 0.00 0.00 0.00 95 1010.5
20260903080957 25 137 0.0 0.0 0.00 0.00 0.00 95 1010.5
20260903080453 25 137 0.0 0.0 0.00 0.00 0.00 95 1010.5